Tacoma, WA

10:52 AM PDT on April 26, 2017 (GMT -0700)
McChord Air Force Base

Weather History for KTCM - September, 2013

Change the Weather History Date:

Saturday, September 7, 2013

  Actual Average Record
Temperature  
Mean Temperature 65 °F -  
Max Temperature 73 °F 70 °F 93 °F (1981)
Min Temperature 57 °F 48 °F 36 °F (1992)
Growing Degree Days 15 (Base 50)    
Moisture  
Dew Point 59 °F    
Average Humidity 90    
Maximum Humidity 100    
Minimum Humidity 60    
Precipitation  
Precipitation 0.00 in - - ()
Sea Level Pressure  
Sea Level Pressure 30.09 in    
Wind  
Wind Speed 2 mph (NE)    
Max Wind Speed 8 mph    
Max Gust Speed -    
Visibility 8 miles    
Events Fog    
Averages and records for this station are not official NWS values.
T = Trace of Precipitation, MM = Missing Value Source: NWS Daily Summary

Daily Weather History Graph

Daily Weather History Graph

Search for Another Location

Airport or City:

Trip Planner

Search our weather history database for the weather conditions in past years. The results will help you decide how hot, cold, wet, or windy it might be!

Date:

Astronomy

Sep. 07, 2013 Rise Set
Actual Time 6:37 AM PDT 7:37 PM PDT
Civil Twilight 6:06 AM PDT 8:08 PM PDT
Nautical Twilight 5:28 AM PDT 8:45 PM PDT
Astronomical Twilight 4:49 AM PDT 9:24 PM PDT
Moon 9:10 AM PDT (9/7) 8:24 PM PDT (9/7)
Length of Visible Light 14h 01m
Length of Day
12h 59m
Waxing Crescent, 6% of the Moon is Illuminated
Sep 7
Waxing Crescent
Sep 12
First Quarter
Sep 19
Full
Sep 26
Last Quarter
Oct 4
New

Hourly Weather History & Observations

Time (PDT) Temp. Dew Point Humidity Pressure Visibility Wind Dir Wind Speed Gust Speed Precip Events Conditions
12:43 AM 59.0 °F 59.0 °F 100% 30.13 in 10.0 mi ESE 2.3 mph - N/A   Overcast
12:48 AM 59.0 °F 59.0 °F 100% 30.13 in 10.0 mi SE 1.2 mph - N/A   Overcast
12:58 AM 59.5 °F 59.2 °F 99% 30.14 in 10.0 mi SSE 2.3 mph - N/A   Overcast
1:13 AM 59.0 °F 59.0 °F 100% 30.12 in 10.0 mi South 5.8 mph - N/A   Overcast
1:28 AM 57.2 °F 57.2 °F 100% 30.12 in 10.0 mi SE 2.3 mph - N/A   Mostly Cloudy
1:33 AM 57.2 °F 57.2 °F 100% 30.13 in 10.0 mi Calm Calm - N/A   Mostly Cloudy
1:38 AM 57.2 °F 57.2 °F 100% 30.13 in 10.0 mi Calm Calm - N/A   Mostly Cloudy
1:48 AM 59.0 °F 57.2 °F 94% 30.12 in 10.0 mi SSE 2.3 mph - N/A   Mostly Cloudy
1:58 AM 58.3 °F 58.1 °F 99% 30.13 in 7.0 mi North - - N/A   Scattered Clouds
2:08 AM 57.2 °F 57.2 °F 100% 30.11 in 1.8 mi South 1.2 mph - N/A   Partly Cloudy
2:13 AM 57.2 °F 57.2 °F 100% 30.11 in 0.8 mi SSE 2.3 mph - N/A   Clear
2:18 AM 57.2 °F 55.4 °F 94% 30.11 in 0.8 mi East 1.2 mph - N/A   Partly Cloudy
2:23 AM 57.2 °F 55.4 °F 94% 30.11 in 1.2 mi NE 2.3 mph - N/A   Scattered Clouds
2:28 AM 57.2 °F 57.2 °F 100% 30.11 in 1.5 mi ENE 3.5 mph - N/A   Mostly Cloudy
2:33 AM 57.2 °F 57.2 °F 100% 30.11 in 1.5 mi East 2.3 mph - N/A   Scattered Clouds
2:38 AM 57.2 °F 57.2 °F 100% 30.11 in 8.0 mi East 1.2 mph - N/A   Scattered Clouds
2:58 AM 57.0 °F 56.8 °F 99% 30.12 in 10.0 mi East 2.3 mph - N/A   Mostly Cloudy
3:08 AM 57.2 °F 57.2 °F 100% 30.11 in 10.0 mi Calm Calm - N/A   Overcast
3:33 AM 57.2 °F 57.2 °F 100% 30.10 in 10.0 mi Calm Calm - N/A   Overcast
3:58 AM 57.7 °F 57.4 °F 99% 30.11 in 10.0 mi Calm Calm - N/A   Overcast
4:58 AM 58.8 °F 58.5 °F 99% 30.11 in 10.0 mi East 2.3 mph - N/A   Overcast
5:23 AM 59.0 °F 59.0 °F 100% 30.10 in 2.5 mi East 2.3 mph - N/A   Mostly Cloudy
5:28 AM 59.0 °F 57.2 °F 94% 30.10 in 2.5 mi SE 2.3 mph - N/A   Mostly Cloudy
5:32 AM 59.0 °F 57.2 °F 94% 30.10 in 2.5 mi Calm Calm - N/A   Mostly Cloudy
5:37 AM 59.0 °F 57.2 °F 94% 30.10 in 1.0 mi SW 2.3 mph - N/A   Overcast
5:42 AM 59.0 °F 57.2 °F 94% 30.09 in 1.0 mi SSW 2.3 mph - N/A   Overcast
5:52 AM 57.2 °F 57.2 °F 100% 30.09 in 1.0 mi South 2.3 mph - N/A   Overcast
5:54 AM 57.2 °F 57.2 °F 100% 30.09 in 1.0 mi South 2.3 mph - N/A   Overcast
5:58 AM 57.6 °F 57.2 °F 99% 30.10 in 1.0 mi South 3.5 mph - N/A   Overcast
6:08 AM 57.2 °F 57.2 °F 100% 30.09 in 2.5 mi SSE 1.2 mph - N/A   Overcast
6:13 AM 57.2 °F 57.2 °F 100% 30.09 in 7.0 mi Calm Calm - N/A   Overcast
6:33 AM 57.2 °F 57.2 °F 100% 30.09 in 9.0 mi Calm Calm - N/A   Mostly Cloudy
6:43 AM 57.2 °F 57.2 °F 100% 30.09 in 1.5 mi Calm Calm - N/A   Mostly Cloudy
6:48 AM 57.2 °F 57.2 °F 100% 30.09 in 0.8 mi Calm Calm - N/A   Scattered Clouds
6:53 AM 57.2 °F 57.2 °F 100% 30.09 in 1.0 mi Calm Calm - N/A   Mostly Cloudy
6:58 AM 57.2 °F 57.2 °F 100% 30.10 in 2.5 mi Calm Calm - N/A   Mostly Cloudy
7:03 AM 57.2 °F 57.2 °F 100% 30.09 in 1.8 mi NNW 2.3 mph - N/A   Mostly Cloudy
7:07 AM 57.2 °F 57.2 °F 100% 30.09 in 2.0 mi NNW 2.3 mph - N/A   Mostly Cloudy
7:12 AM 59.0 °F 57.2 °F 94% 30.09 in 1.0 mi North 2.3 mph - N/A   Overcast
7:17 AM 59.0 °F 59.0 °F 100% 30.09 in 0.5 mi NNE 1.2 mph - N/A Fog Fog
7:22 AM 59.0 °F 59.0 °F 100% 30.09 in 1.0 mi Calm Calm - N/A   Overcast
7:27 AM 59.0 °F 59.0 °F 100% 30.09 in 3.0 mi North 2.3 mph - N/A   Overcast
7:37 AM 59.0 °F 59.0 °F 100% 30.09 in 5.0 mi Calm Calm - N/A   Overcast
7:42 AM 59.0 °F 59.0 °F 100% 30.09 in 7.0 mi Calm Calm - N/A   Overcast
7:57 AM 59.0 °F 59.0 °F 100% 30.09 in 10.0 mi Calm Calm - N/A   Overcast
7:58 AM 59.7 °F 59.4 °F 99% 30.10 in 10.0 mi North 1.2 mph - N/A   Overcast
8:08 AM 60.8 °F 60.8 °F 100% 30.09 in 10.0 mi North 2.3 mph - N/A   Overcast
8:18 AM 60.8 °F 60.8 °F 100% 30.09 in 10.0 mi Calm Calm - N/A   Overcast
8:33 AM 60.8 °F 60.8 °F 100% 30.09 in 10.0 mi Calm Calm - N/A   Overcast
8:38 AM 60.8 °F 60.8 °F 100% 30.09 in 10.0 mi Calm Calm - N/A   Overcast
8:43 AM 60.8 °F 60.8 °F 100% 30.09 in 10.0 mi Calm Calm - N/A   Overcast
8:58 AM 61.9 °F 61.7 °F 99% 30.10 in 10.0 mi Calm Calm - N/A   Overcast
9:03 AM 62.6 °F 62.6 °F 100% 30.09 in 10.0 mi Calm Calm - N/A   Overcast
9:08 AM 62.6 °F 62.6 °F 100% 30.09 in 10.0 mi North 1.2 mph - N/A   Overcast
9:13 AM 62.6 °F 62.6 °F 100% 30.09 in 10.0 mi North 1.2 mph - N/A   Overcast
9:18 AM 62.6 °F 62.6 °F 100% 30.10 in 10.0 mi Variable 1.2 mph - N/A   Overcast
9:33 AM 64.4 °F 60.8 °F 88% 30.09 in 10.0 mi North 1.2 mph - N/A   Overcast
9:38 AM 64.4 °F 60.8 °F 88% 30.09 in 10.0 mi Calm Calm - N/A   Overcast
9:48 AM 64.4 °F 60.8 °F 88% 30.09 in 10.0 mi Calm Calm - N/A   Overcast
9:53 AM 64.4 °F 60.8 °F 88% 30.09 in 10.0 mi NNW 1.2 mph - N/A   Overcast
9:58 AM 64.6 °F 60.8 °F 88% 30.11 in 10.0 mi Calm Calm - N/A   Overcast
10:13 AM 64.4 °F 60.8 °F 88% 30.09 in 10.0 mi Calm Calm - N/A   Overcast
10:18 AM 64.4 °F 60.8 °F 88% 30.09 in 10.0 mi Calm Calm - N/A   Mostly Cloudy
10:33 AM 64.4 °F 60.8 °F 88% 30.09 in 10.0 mi Calm Calm - N/A   Overcast
10:38 AM 64.4 °F 60.8 °F 88% 30.09 in 10.0 mi NNE 3.5 mph - N/A   Overcast
10:58 AM 65.7 °F 60.1 °F 82% 30.10 in 10.0 mi NNE 3.5 mph - N/A   Overcast
11:58 AM 66.2 °F 59.4 °F 79% 30.10 in 10.0 mi North 4.6 mph - N/A   Overcast
12:08 PM 66.2 °F 59.0 °F 78% 30.08 in 10.0 mi Variable 3.5 mph - N/A   Overcast
12:28 PM 66.2 °F 59.0 °F 78% 30.08 in 10.0 mi Variable 2.3 mph - N/A   Mostly Cloudy
12:33 PM 66.2 °F 59.0 °F 78% 30.08 in 10.0 mi NE 5.8 mph - N/A   Mostly Cloudy
12:58 PM 66.4 °F 58.8 °F 77% 30.09 in 10.0 mi NNE 4.6 mph - N/A   Mostly Cloudy
1:58 PM 69.4 °F 59.4 °F 70% 30.08 in 10.0 mi Variable 4.6 mph - N/A   Scattered Clouds
2:18 PM 69.8 °F 59.0 °F 68% 30.07 in 10.0 mi NNW 4.6 mph - N/A   Mostly Cloudy
2:43 PM 71.6 °F 59.0 °F 64% 30.06 in 10.0 mi North 6.9 mph - N/A   Scattered Clouds
2:58 PM 72.0 °F 58.8 °F 63% 30.07 in 10.0 mi Variable 3.5 mph - N/A   Scattered Clouds
3:18 PM 71.6 °F 59.0 °F 64% 30.06 in 10.0 mi NE 8.1 mph - N/A   Mostly Cloudy
3:33 PM 71.6 °F 59.0 °F 64% 30.06 in 10.0 mi Variable 4.6 mph - N/A   Scattered Clouds
3:53 PM 71.6 °F 57.2 °F 60% 30.06 in 10.0 mi NNE 5.8 mph - N/A   Mostly Cloudy
3:58 PM 71.6 °F 57.2 °F 60% 30.07 in 10.0 mi North 6.9 mph - N/A   Scattered Clouds
4:08 PM 73.4 °F 59.0 °F 61% 30.05 in 10.0 mi North 6.9 mph - N/A   Mostly Cloudy
4:13 PM 73.4 °F 59.0 °F 61% 30.05 in 10.0 mi North 4.6 mph - N/A   Mostly Cloudy
4:58 PM 71.6 °F 59.0 °F 64% 30.05 in 10.0 mi NNE 6.9 mph - N/A   Mostly Cloudy
5:03 PM 71.6 °F 59.0 °F 64% 30.04 in 10.0 mi NE 5.8 mph - N/A   Mostly Cloudy
5:58 PM 72.1 °F 59.4 °F 64% 30.04 in 10.0 mi NNE 4.6 mph - N/A   Clear
6:58 PM 70.3 °F 58.3 °F 66% 30.04 in 10.0 mi Variable 3.5 mph - N/A   Clear
7:58 PM 67.1 °F 57.0 °F 70% 30.05 in 10.0 mi NE 2.3 mph - N/A   Clear
8:58 PM 62.2 °F 57.0 °F 83% 30.06 in 10.0 mi NE 1.2 mph - N/A   Clear
9:58 PM 60.1 °F 56.8 °F 89% 30.06 in 10.0 mi East 2.3 mph - N/A   Clear
10:58 PM 62.2 °F 57.0 °F 83% 30.07 in 10.0 mi NE 2.3 mph - N/A   Clear
11:58 PM 58.1 °F 55.8 °F 92% 30.07 in 10.0 mi South 2.3 mph - N/A   Clear